Regional Weather Roundup
Issued by NWS

Home | Current Version | Previous Version | Graphics & Text | Print | Product List | Glossary On
Versions: 1 2 3 4 5 6 7 8 9 10 11 12 13 14 15 16 17 18 19 20 21 22 23 24 25 26 27 28 29 30 31 32 33 34 35 36 37 38 39 40 41 42 43 44 45 46 47 48 49 50
919
ASUS45 KBOI 060210
RWRID

IDAHO REGIONAL WEATHER ROUNDUP
NATIONAL WEATHER SERVICE BOISE ID
700 PM MST FRI FEB 05 2016

NOTE: "FAIR" INDICATES FEW OR NO CLOUDS BELOW 12000 FEET
WITH NO SIGNIFICANT WEATHER AND/OR OBSTRUCTIONS TO VISIBILITY

IDZ012-014-060300-
SOUTHWEST IDAHO


CITY           SKY/WX    TMP DP  RH WIND       PRES   REMARKS
BOISE          MOCLDY    38  32  79 SE13      30.44R WCI  30
CALDWELL       FOG       33  32  96 CALM      30.46F VSB 1/4
MOUNTAIN HOME  PTCLDY    34  34 100 E16       30.46R WCI  23
$$

IDZ016-017-060300-
SOUTHCENTRAL IDAHO


CITY           SKY/WX    TMP DP  RH WIND       PRES   REMARKS
BURLEY         CLEAR     26  22  84 NE7       30.49R WCI  18
JEROME         MOCLDY    23  21  92 NE22      30.48F FOG     WCI   8
TWIN FALLS     CLEAR     27  25  92 E8        30.47F WCI  19
$$

IDZ019>023-060300-
SOUTHEAST IDAHO


CITY           SKY/WX    TMP DP  RH WIND       PRES   REMARKS
IDAHO FALLS    CLOUDY    20  18  92 N5        30.51S FOG     WCI  13
POCATELLO      CLOUDY    23  20  88 NE6       30.52R WCI  16
REXBURG        CLOUDY    22  20  92 W3        30.50R FOG
$$

IDZ006-010-011-018-031-032-060300-
CENTRAL IDAHO MOUNTAINS


CITY           SKY/WX    TMP DP  RH WIND       PRES   REMARKS
MCCALL         CLOUDY    28  25  88 NE5       30.37F WCI  23
HAILEY         CLEAR     18  16  93 CALM      30.47S
STANLEY          N/A     24  17  74 VRB3      30.39F
SALMON         CLOUDY    16  12  86 SE5       30.41F WCI   9
CHALLIS        PTCLDY    17  12  80 N5        30.40F WCI  10
$$

IDZ002-004-006-007-026-060300-
NORTHERN IDAHO


CITY           SKY/WX    TMP DP  RH WIND       PRES   REMARKS
LEWISTON       CLOUDY    48  33  56 SE15      30.22F
LOWELL           N/A     37  35  92 N3        30.35F
COEUR D`ALENE  CLOUDY    43  34  70 CALM      30.17F
MULLAN PASS    CLOUDY    29  26  89 VRB5      30.18F WCI  24
$$




USA.gov is the U.S. government's official web portal to all federal, state and local government web resources and services.